Powrót do katalogu

ONEWEB-0534

AktywnyŁącznośćPO
NORAD 55797·PAYLOAD·🇬🇧 United Kingdom

Wystrzelony Mar 9, 2023 z Cape Canaveral Space Force Station

Loading…

Następne Przeloty (najbliższe 24 godziny)

TLE

ŚwieżeSource: CelesTrak SupGP

Epoka: Sep 14, 2026, 17:19 UTC

1 55797C 23029B   26257.72201806 -.00000139  00000+0 -34247-3 0  2571
2 55797  87.9127 256.6019 0002056  87.2525  24.9604 13.20770286    12

Śledź ONEWEB-0534 w czasie rzeczywistym z AllMySat

Download on the App Store